Time,TemperatureF,DewpointF,PressureIn,WindDirection,WindDirectionDegrees,WindSpeedMPH,WindSpeedGustMPH,Humidity,HourlyPrecipIn,Conditions,Clouds,dailyrainin,SolarRadiationWatts/m^2,SoftwareType,DateUTC
2013-04-22 00:00:00,40.0,30.0,30.01,North,0,0.0,-999.0,68,-99.99,,,-99.99,0.000000,,2013-04-22 06:00:00,
2013-04-22 00:52:00,40.0,30.0,30.01,North,0,0.0,-999.0,68,-99.99,,,-99.99,0.000000,,2013-04-22 06:52:00,
2013-04-22 02:00:00,42.0,29.0,30.03,North,0,0.0,0.0,61,-99.99,,,-99.99,0.000000,,2013-04-22 08:00:00,
2013-04-22 04:00:00,38.0,30.0,30.01,North,0,0.0,0.0,72,-99.99,,,-99.99,0.000000,,2013-04-22 10:00:00,
2013-04-22 05:00:00,38.0,29.0,30.01,North,0,0.0,0.0,68,-99.99,,,-99.99,0.000000,,2013-04-22 11:00:00,
2013-04-22 06:00:00,36.0,28.0,30.01,North,0,0.0,0.0,73,-99.99,,,-99.99,0.000000,,2013-04-22 12:00:00,
2013-04-22 07:00:00,36.0,29.0,30.01,North,0,0.0,-999.0,75,-99.99,,,-99.99,3.770000,,2013-04-22 13:00:00,
2013-04-22 07:53:00,36.0,29.0,30.01,North,0,0.0,-999.0,75,-99.99,,,-99.99,3.770000,,2013-04-22 13:53:00,
2013-04-22 08:00:00,42.0,31.0,30.02,North,0,0.0,-999.0,65,-99.99,,,-99.99,67.870003,,2013-04-22 14:00:00,
2013-04-22 08:52:00,42.0,31.0,30.02,North,0,0.0,-999.0,65,-99.99,,,-99.99,67.870003,,2013-04-22 14:52:00,
2013-04-22 09:00:00,47.0,33.0,30.03,North,0,0.0,-999.0,57,-99.99,,,-99.99,258.899994,,2013-04-22 15:00:00,
2013-04-22 09:53:00,47.0,33.0,30.03,North,0,0.0,-999.0,57,-99.99,,,-99.99,258.899994,,2013-04-22 15:53:00,
2013-04-22 10:00:00,50.0,32.0,30.03,North,6,0.0,-999.0,48,-99.99,,,-99.99,505.500000,,2013-04-22 16:00:00,
2013-04-22 10:52:00,50.0,32.0,30.03,North,6,0.0,-999.0,48,-99.99,,,-99.99,505.500000,,2013-04-22 16:52:00,
2013-04-22 11:00:00,53.0,30.0,30.02,North,9,4.0,-999.0,41,-99.99,,,-99.99,684.799988,,2013-04-22 17:00:00,
2013-04-22 11:52:00,53.0,30.0,30.02,North,9,4.0,-999.0,41,-99.99,,,-99.99,684.799988,,2013-04-22 17:52:00,
2013-04-22 13:00:00,53.0,30.0,30.01,North,9,5.0,12.0,40,-99.99,,,-99.99,807.000000,,2013-04-22 19:00:00,
2013-04-22 14:00:00,54.0,30.0,30.00,North,355,8.0,-999.0,39,-99.99,,,-99.99,940.000000,,2013-04-22 20:00:00,
2013-04-22 14:52:00,54.0,30.0,30.00,North,355,8.0,-999.0,39,-99.99,,,-99.99,940.000000,,2013-04-22 20:52:00,
2013-04-22 15:00:00,53.0,28.0,29.99,North,6,11.0,-999.0,37,-99.99,,,-99.99,898.000000,,2013-04-22 21:00:00,
2013-04-22 15:53:00,53.0,28.0,29.99,North,6,11.0,-999.0,37,-99.99,,,-99.99,898.000000,,2013-04-22 21:53:00,
2013-04-22 16:00:00,53.0,28.0,29.98,North,359,9.0,-999.0,37,-99.99,,,-99.99,816.000000,,2013-04-22 22:00:00,
2013-04-22 16:52:00,53.0,28.0,29.98,North,359,9.0,-999.0,37,-99.99,,,-99.99,816.000000,,2013-04-22 22:52:00,
2013-04-22 17:00:00,52.0,24.0,29.98,NNW,345,9.0,-999.0,33,-99.99,,,-99.99,674.200012,,2013-04-22 23:00:00,
2013-04-22 17:52:00,52.0,24.0,29.98,NNW,345,9.0,-999.0,33,-99.99,,,-99.99,674.200012,,2013-04-22 23:52:00,
2013-04-22 18:00:00,50.0,22.0,29.98,North,353,8.0,-999.0,33,-99.99,,,-99.99,428.799988,,2013-04-23 00:00:00,
2013-04-22 18:52:00,50.0,22.0,29.98,North,353,8.0,-999.0,33,-99.99,,,-99.99,428.799988,,2013-04-23 00:52:00,
2013-04-22 19:00:00,48.0,20.0,30.00,North,0,6.0,-999.0,33,-99.99,,,-99.99,144.699997,,2013-04-23 01:00:00,
2013-04-22 19:52:00,48.0,20.0,30.00,North,0,6.0,-999.0,33,-99.99,,,-99.99,144.699997,,2013-04-23 01:52:00,
2013-04-22 20:00:00,44.0,16.0,30.02,North,3,4.0,-999.0,31,-99.99,,,-99.99,43.570000,,2013-04-23 02:00:00,
2013-04-22 20:52:00,44.0,16.0,30.02,North,3,4.0,-999.0,31,-99.99,,,-99.99,43.570000,,2013-04-23 02:52:00,
2013-04-22 21:00:00,43.0,16.0,30.05,North,9,1.0,-999.0,33,-99.99,,,-99.99,1.980000,,2013-04-23 03:00:00,
2013-04-22 21:53:00,43.0,16.0,30.05,North,9,1.0,-999.0,33,-99.99,,,-99.99,1.980000,,2013-04-23 03:53:00,
2013-04-22 22:00:00,41.0,20.0,30.08,North,2,1.0,-999.0,43,-99.99,,,-99.99,0.000000,,2013-04-23 04:00:00,
2013-04-22 22:53:00,41.0,20.0,30.08,North,2,1.0,-999.0,43,-99.99,,,-99.99,0.000000,,2013-04-23 04:53:00,
2013-04-22 23:00:00,39.0,23.0,30.09,North,4,0.0,-999.0,52,-99.99,,,-99.99,0.000000,,2013-04-23 05:00:00,
2013-04-22 23:52:00,39.0,23.0,30.09,North,4,0.0,-999.0,52,-99.99,,,-99.99,0.000000,,2013-04-23 05:52:00,